Theta_e
298 298 299 299 299 299 299 299 300 300 300 299 299 299 299 299 299 299 299 299 299 299 300 300 300 300 300 300 300 300 300 300 300 300 301 301 300 299 299 299 299 299 299 300 300 300 300 300 300 300 300 300 300 300 300 300 300 299 300 299 300 300 300 299 299 300 300 300 301
298 298 299 300 300 300 299 299 299 300 300 299 299 299 299 299 299 299 299 299 300 300 300 300 300 300 300 300 300 300 300 300 299 300 300 300 299 299 299 299 299 299 300 299 299 300 300 300 300 300 300 300 300 300 300 300 300 300 299 299 300 300 300 300 300 300 300 300 301
298 298 298 298 298 298 298 298 298 298 298 298 299 299 299 299 299 299 299 299 300 300 300 300 300 300 300 300 300 300 300 300 300 300 300 300 300 300 300 300 300 300 300 300 300 300 300 300 300 300 300 300 300 300 300 300 300 300 300 299 300 300 300 300 300 300 300 300 300
297 297 297 297 297 297 297 298 298 297 298 298 298 298 299 299 299 299 299 299 299 299 300 300 300 300 300 300 300 301 301 301 301 301 300 301 300 301 300 300 300 300 300 300 300 300 300 300 300 300 300 300 299 299 300 300 300 300 300 300 300 300 299 300 300 300 300 300 300
297 297 297 297 297 297 297 297 297 297 298 298 298 298 298 298 299 298 299 299 299 299 299 299 299 300 300 301 300 300 301 301 302 302 301 301 301 301 301 300 300 300 300 300 299 299 299 300 300 300 300 300 300 300 300 300 300 300 300 300 300 300 299 299 299 299 300 300 300
296 297 297 297 297 297 297 297 297 297 297 298 297 297 297 298 298 298 298 298 298 298 299 299 300 300 300 300 300 300 300 300 301 301 301 301 301 301 301 301 301 300 300 300 300 300 300 300 300 300 300 300 300 300 300 300 300 300 300 299 299 300 299 299 299 299 299 299 299
296 296 296 297 296 297 297 297 297 297 297 297 297 297 297 297 297 297 297 298 298 298 299 300 299 299 299 300 299 299 300 300 300 300 301 300 301 301 301 301 300 300 300 300 300 300 300 300 300 300 300 301 300 300 300 300 300 300 300 299 299 299 299 299 299 300 299 299 299
296 296 297 297 297 297 296 297 297 297 297 297 297 297 297 297 297 297 297 298 298 298 298 299 298 298 298 299 299 299 299 299 299 300 300 300 300 300 300 300 300 300 300 300 300 300 299 300 299 299 299 299 300 300 300 300 300 300 299 299 299 300 300 300 300 300 300 299 299
296 296 297 297 297 297 297 297 297 297 297 297 297 297 297 297 297 297 297 297 298 298 298 298 298 298 298 298 298 298 298 298 299 299 299 300 300 300 300 300 300 300 300 300 300 299 299 299 299 299 299 299 299 299 299 299 299 299 299 299 299 299 299 299 299 299 299 298 298
296 296 296 296 297 297 297 297 297 297 297 297 297 297 297 298 298 298 297 298 298 298 298 297 297 297 297 297 297 297 297 298 298 298 299 299 299 299 299 299 300 300 300 300 300 300 300 300 299 299 299 299 299 299 299 299 298 298 299 299 298 298 298 298 298 297 297 297 297
296 296 296 296 297 297 297 297 297 297 297 297 297 297 297 298 297 297 297 298 297 297 297 297 297 297 297 297 297 297 297 297 298 298 298 298 298 298 298 299 299 299 299 300 300 300 300 300 299 299 299 299 299 299 298 298 298 298 298 298 298 297 297 297 297 297 297 297 296
296 296 296 297 296 297 297 296 297 297 297 296 296 296 296 296 297 297 297 297 297 297 297 297 297 297 297 297 297 297 297 297 297 297 297 297 297 298 298 298 298 299 299 299 300 300 300 300 299 299 299 299 299 299 299 298 297 297 297 297 297 296 296 296 296 296 297 296 296
296 296 297 296 297 296 296 296 296 296 296 296 296 297 297 297 297 297 297 297 297 297 297 297 297 297 297 297 297 297 297 296 296 296 296 296 297 297 297 297 298 298 298 299 299 300 300 299 299 299 299 299 299 300 299 299 298 297 297 297 296 296 296 296 296 296 296 296 296
296 296 296 296 296 296 296 296 296 296 296 296 296 297 297 297 298 298 298 297 297 297 297 297 298 298 298 297 297 297 297 296 296 296 296 296 296 296 296 297 297 297 298 298 299 299 299 299 299 299 299 299 300 300 300 299 299 298 298 297 297 296 296 296 296 296 296 296 296
296 296 296 296 296 296 296 296 296 297 297 296 297 297 297 297 298 298 298 297 297 297 297 297 298 298 298 298 297 297 297 297 297 296 296 296 296 296 296 296 297 297 297 298 298 298 299 299 299 299 299 300 300 300 300 300 299 299 299 298 298 298 298 297 297 297 296 296 296
296 296 296 296 296 296 296 296 297 297 297 297 297 297 297 298 298 298 298 297 298 298 298 297 298 298 298 298 298 298 297 297 297 297 296 296 296 296 296 296 296 297 297 297 298 298 299 299 300 300 300 300 300 300 300 300 300 299 299 299 299 299 298 298 298 298 297 297 297
296 296 296 296 296 296 296 296 297 297 297 297 297 297 298 298 298 298 298 298 298 298 298 298 298 298 298 298 298 298 298 297 297 297 296 296 296 296 296 296 296 297 297 297 297 298 298 299 300 300 300 300 300 300 300 300 300 300 299 299 299 299 299 299 299 299 298 298 298
296 296 296 296 296 296 296 297 297 297 297 297 297 298 298 298 298 298 298 298 298 298 297 298 298 298 298 297 298 298 298 297 297 297 296 296 296 296 296 297 297 297 297 297 297 298 298 298 299 299 300 300 300 300 300 300 300 300 300 300 299 299 299 299 299 299 299 298 299
296 296 296 296 296 296 297 297 297 297 297 297 297 297 297 297 297 297 297 298 298 298 298 297 297 297 297 297 297 297 298 297 297 297 297 296 296 296 297 297 297 297 297 297 297 298 298 298 298 299 299 299 299 299 299 299 300 300 300 300 299 299 299 299 299 299 299 299 299
296 296 296 296 296 297 297 297 297 297 297 297 297 297 297 297 297 297 297 297 298 298 298 297 297 297 297 297 297 297 297 297 297 297 297 297 296 296 296 297 297 297 297 297 297 297 297 297 298 298 299 299 299 299 298 299 299 299 300 300 300 299 299 299 299 299 299 299 298
296 296 296 296 296 297 297 297 297 297 297 297 297 297 297 297 297 297 297 298 298 298 297 297 297 296 296 296 296 296 297 297 297 297 297 297 297 297 297 297 297 297 297 297 297 297 297 297 298 298 298 298 298 298 298 298 298 299 299 299 300 300 299 299 299 298 298 299 298
296 296 296 296 297 297 297 297 297 297 297 297 297 297 297 297 297 297 297 298 298 297 297 297 297 296 296 296 296 297 297 297 297 297 297 297 297 297 297 297 297 297 297 297 297 297 297 297 297 298 298 298 298 298 298 298 298 298 299 299 299 300 300 299 299 299 299 299 299
296 296 296 296 296 297 297 296 296 296 296 296 296 297 297 297 297 297 297 297 297 297 297 297 297 297 297 297 297 297 297 297 297 297 297 297 297 297 297 297 297 297 297 297 297 297 297 297 297 297 297 297 297 297 298 298 297 298 298 298 299 299 299 300 300 300 299 299 299
296 296 296 296 296 296 296 296 296 296 296 296 296 296 296 296 297 297 297 297 297 297 297 297 297 297 297 297 297 297 297 297 297 297 297 297 297 297 297 297 297 297 297 297 298 298 298 298 297 297 297 297 297 297 297 297 297 297 297 297 298 298 299 299 299 299 299 299 299
295 295 295 295 295 295 296 296 296 295 295 296 296 296 296 296 297 297 297 297 297 297 297 297 297 297 297 297 297 298 298 297 297 297 297 297 297 297 297 297 297 297 297 298 301 302 303 302 300 299 298 297 297 297 297 297 297 297 297 297 297 297 297 298 298 298 298 298 298
295 295 295 295 295 295 295 295 295 295 295 295 295 296 296 296 297 297 297 296 296 296 297 297 297 297 298 298 298 298 298 298 297 297 297 296 296 297 297 297 297 297 298 299 302 303 304 304 303 302 300 298 298 297 297 297 297 297 297 297 297 297 296 296 297 297 297 298 297
294 294 294 294 294 295 295 295 295 295 295 295 295 296 296 297 297 297 296 296 296 296 297 297 297 298 298 298 297 297 297 298 298 297 297 297 297 296 296 297 297 297 298 301 302 304 304 305 305 304 303 300 299 299 298 298 298 298 298 298 298 297 297 296 296 297 297 297 297
294 294 294 294 294 294 294 295 295 295 295 295 296 296 296 297 296 296 296 295 296 296 296 296 297 297 298 298 297 297 297 297 298 297 297 297 297 297 297 297 297 298 300 302 303 304 304 305 306 306 305 303 300 299 299 298 298 299 299 299 298 298 298 297 297 297 297 296 296
293 293 293 294 294 294 294 294 294 294 295 296 296 296 296 296 295 295 295 295 295 296 296 296 297 297 297 297 297 297 297 297 297 297 297 297 297 297 297 297 297 299 301 303 304 304 304 305 306 306 306 305 302 300 299 299 299 299 299 299 299 299 299 298 298 297 297 296 297
293 293 293 293 293 294 294 294 294 295 295 296 296 296 296 295 295 295 295 295 295 295 296 297 297 297 297 297 297 297 297 297 297 297 297 297 297 297 297 298 298 298 300 303 304 304 304 305 306 306 306 306 304 301 300 299 298 298 298 299 299 298 298 298 298 297 297 298 298
293 293 293 294 293 293 294 294 295 295 296 296 296 295 295 294 294 294 295 295 295 296 297 297 296 296 296 296 297 297 297 297 297 297 297 297 297 297 297 297 297 298 300 303 303 304 304 304 305 306 306 306 304 302 300 299 298 298 298 298 298 298 298 298 298 298 298 299 299
293 293 293 293 293 293 294 295 295 296 296 296 295 295 295 294 294 295 295 295 296 296 296 296 296 296 296 296 296 296 296 297 297 297 297 297 297 297 297 297 297 298 300 302 303 304 304 304 305 306 306 306 304 302 301 300 299 299 299 299 298 298 298 298 298 298 298 298 298
293 293 293 293 293 294 294 295 296 296 296 295 295 295 294 294 294 295 295 295 295 295 295 295 295 296 296 296 296 296 297 297 297 297 298 298 297 297 297 297 297 298 301 303 303 303 304 304 305 306 306 306 304 302 301 300 299 299 299 299 299 298 298 298 298 298 298 298 298
293 293 293 293 294 294 295 295 295 296 295 295 295 294 294 294 294 294 295 295 296 296 296 296 296 296 296 296 296 296 297 297 297 297 297 297 297 297 297 297 297 299 301 303 303 303 304 304 304 305 306 305 303 301 300 299 299 298 298 298 299 299 299 298 298 298 297 298 298
292 293 293 293 294 294 295 295 295 295 295 294 294 294 294 294 294 295 295 296 296 296 296 296 296 296 297 297 297 297 297 297 297 297 297 297 297 297 296 296 296 299 301 303 303 304 304 304 305 305 305 305 302 301 299 299 297 297 297 297 298 299 299 298 297 297 297 297 297
293 293 293 293 294 294 295 295 295 294 294 294 294 294 294 294 294 295 295 296 296 296 295 296 296 296 296 297 297 297 297 297 297 297 297 297 297 297 296 296 296 298 301 303 303 304 304 304 304 305 305 303 301 300 299 298 297 297 297 297 298 299 299 298 297 297 297 297 297
293 293 293 293 294 294 295 295 294 294 294 294 294 294 294 294 294 295 295 296 295 295 295 295 296 296 296 296 297 297 297 297 298 297 298 298 297 297 296 296 296 297 300 302 303 303 303 304 304 304 304 302 300 300 299 298 297 297 298 298 298 298 298 298 297 296 296 296 296
293 293 293 293 294 294 294 294 294 294 294 293 293 294 294 294 294 295 295 296 295 295 295 295 296 296 296 297 297 297 298 298 298 298 298 297 297 297 297 296 296 297 298 301 302 303 303 304 304 304 304 301 300 299 299 298 297 297 298 298 298 298 298 297 296 295 295 295 298
293 293 293 293 294 294 294 294 294 293 294 294 294 294 294 294 294 295 296 296 296 296 296 295 296 296 297 298 298 298 298 298 298 298 298 297 298 298 298 297 296 297 298 301 302 303 303 303 304 305 304 302 299 298 298 298 297 296 297 298 298 298 298 298 296 295 295 295 300
293 293 293 293 294 294 294 293 294 294 294 294 294 294 294 294 295 296 296 297 296 296 296 296 296 297 298 299 298 297 297 297 297 298 298 298 298 299 300 299 297 297 298 301 302 302 303 304 304 305 305 302 299 297 297 297 296 295 295 296 296 297 297 297 297 296 295 295 298
293 294 294 294 294 294 294 293 294 294 294 294 294 294 295 296 296 296 296 296 296 296 297 297 297 297 298 298 297 297 296 296 297 297 297 298 298 299 300 298 297 297 297 299 301 302 303 304 304 305 304 302 299 297 296 296 295 295 294 293 294 294 294 295 295 295 295 294 295
Wind_Speed
7 7 7 7 7 6 6 6 6 6 6 6 6 6 6 6 7 7 7 7 7 7 7 7 7 8 9 10 11 11 11 12 12 12 13 13 12 12 12 12 11 11 11 11 11 10 10 10 9 8 7 7 7 7 7 6 6 6 7 7 7 7 7 9 9 9 10 10 8
8 8 8 9 8 7 6 6 6 6 6 6 6 7 7 7 7 8 8 8 7 8 8 8 8 9 10 12 11 11 12 12 12 12 13 13 13 13 12 12 12 12 12 12 11 10 9 10 9 8 7 7 7 8 7 7 6 7 8 8 7 6 7 8 8 9 9 9 8
8 8 8 8 8 7 7 7 7 7 8 7 7 7 7 7 7 8 8 8 9 9 8 8 9 9 11 12 11 11 11 11 12 12 12 12 12 13 13 12 12 13 13 12 11 10 10 10 9 9 8 8 8 8 8 8 8 8 8 9 7 6 6 6 7 7 7 7 8
9 9 8 8 9 9 9 8 9 9 9 8 8 8 7 7 7 8 8 9 9 9 9 9 10 11 11 12 12 12 12 13 13 14 13 13 13 13 13 13 13 13 12 12 12 11 11 11 9 9 9 10 10 10 9 8 9 8 7 7 6 6 6 6 6 6 6 6 7
9 8 8 8 9 10 9 9 10 10 9 8 8 8 8 8 8 8 8 9 9 10 10 11 11 12 12 12 14 14 14 15 15 15 14 14 14 14 14 14 13 13 13 12 12 12 12 11 9 9 9 10 9 9 9 10 10 9 8 6 6 6 6 5 5 5 5 6 6
9 9 9 9 10 10 9 9 10 10 10 9 9 10 10 9 9 9 10 10 11 12 13 14 13 13 13 14 14 15 15 15 14 14 14 14 14 14 14 15 15 14 13 13 13 13 13 12 10 9 9 9 9 9 10 11 11 10 9 8 7 6 5 5 5 5 6 7 7
9 10 10 10 11 10 10 10 10 10 10 9 11 11 12 11 11 12 13 12 12 12 13 12 12 12 13 14 14 14 14 14 14 14 15 15 15 15 15 15 15 14 14 14 14 14 13 11 10 9 10 10 9 10 10 11 11 10 10 9 7 6 6 6 5 5 6 8 9
10 10 10 11 11 11 11 11 10 10 10 9 11 12 13 13 14 14 14 13 12 12 12 11 11 12 13 13 14 14 14 15 15 15 15 14 15 15 15 15 14 14 14 14 14 14 13 11 10 10 10 9 9 9 10 11 12 11 11 10 8 7 6 6 5 6 7 8 9
9 10 10 10 10 11 11 11 11 11 11 11 12 13 13 14 14 14 13 12 12 11 11 10 12 13 13 14 14 15 15 15 15 15 15 14 14 14 14 14 14 13 13 12 13 13 13 11 10 10 10 9 9 10 10 12 12 13 12 11 9 8 7 7 7 7 8 8 9
10 10 10 10 10 10 11 11 11 11 12 12 13 13 13 14 14 13 12 11 11 11 11 11 12 13 14 14 14 14 14 14 14 15 16 15 15 15 14 13 13 13 13 12 11 12 12 11 11 11 11 10 12 12 13 13 13 13 12 9 8 9 9 8 8 8 8 8 8
11 11 10 10 10 11 11 11 11 11 11 12 12 13 13 13 13 12 12 11 11 12 12 12 13 13 14 13 13 13 13 13 13 14 15 16 15 15 15 14 14 14 13 12 11 10 10 9 10 11 12 12 13 14 15 15 15 14 13 10 10 10 10 10 10 9 8 8 9
11 11 11 11 11 11 11 11 10 11 11 12 12 12 12 12 12 12 12 12 12 13 13 12 13 13 13 12 12 12 13 13 14 14 14 15 15 15 15 15 15 15 15 14 12 10 9 10 10 11 12 13 12 12 14 16 15 15 13 12 11 10 10 10 10 9 8 8 9
11 11 11 11 12 11 11 11 11 11 11 12 12 12 12 11 12 12 12 12 12 12 12 12 13 13 13 12 12 12 12 13 14 14 14 14 15 16 16 16 16 16 15 15 13 11 11 11 11 12 12 12 11 12 13 16 16 15 14 13 11 11 10 10 10 10 10 10 10
12 12 12 12 12 12 11 11 11 11 11 12 12 12 11 11 12 12 12 12 12 12 13 13 12 12 12 13 13 13 14 14 14 15 15 15 15 16 16 16 16 16 16 14 13 13 13 12 12 12 12 12 12 13 14 15 16 16 15 13 12 11 11 11 11 10 10 10 11
12 12 13 13 12 12 12 12 11 11 11 12 11 11 11 11 12 12 12 12 13 13 12 12 12 13 13 14 15 15 15 15 15 15 16 16 16 16 16 16 16 16 16 15 14 13 13 14 14 13 12 11 12 13 15 16 16 16 15 14 13 12 11 11 11 11 11 11 10
13 13 13 13 13 13 12 12 11 11 11 12 12 12 12 12 12 12 13 14 13 12 12 13 14 13 13 14 15 16 16 15 15 16 16 16 16 16 16 16 16 16 16 16 14 13 13 14 14 14 13 11 11 12 14 15 16 16 15 14 13 12 11 12 12 12 11 11 10
13 13 13 13 14 14 13 13 11 11 12 13 13 13 13 12 12 13 14 15 14 14 14 16 15 14 14 14 14 15 15 15 15 15 15 16 16 16 16 16 16 16 16 15 14 13 12 12 13 14 13 12 12 12 13 14 14 15 15 14 12 12 11 12 12 11 10 10 10
14 14 14 14 14 14 14 14 14 13 14 14 14 14 14 14 14 14 14 15 15 16 17 17 16 16 15 16 15 14 14 15 15 16 16 16 16 16 16 16 16 16 15 15 14 13 12 12 13 13 13 12 12 12 12 13 12 13 13 13 12 11 11 12 11 11 10 9 10
14 14 14 15 15 15 15 15 15 15 15 15 15 15 15 16 16 16 16 15 15 16 17 17 17 16 16 17 17 16 15 16 17 17 17 17 17 16 16 16 16 16 15 15 14 13 13 13 13 13 12 12 12 12 13 13 12 11 11 11 12 12 12 12 11 11 10 10 10
15 15 15 15 15 15 16 16 16 16 16 15 16 17 17 18 18 17 17 16 16 16 17 17 17 17 17 18 18 17 17 15 16 17 18 18 17 17 16 16 16 15 15 14 14 14 14 13 13 13 13 13 13 13 13 13 12 12 11 11 11 12 13 13 12 11 11 11 11
15 15 15 15 15 15 16 16 16 16 16 17 17 18 18 18 18 18 17 17 17 17 17 17 18 18 18 18 18 18 17 15 16 16 17 17 17 17 17 16 16 15 14 13 13 14 14 14 13 13 13 13 13 13 12 12 12 12 12 11 11 11 12 12 12 11 11 11 11
15 15 15 15 15 16 16 16 16 17 17 17 18 18 19 19 18 18 18 17 17 17 17 17 17 18 18 18 17 17 16 15 15 16 16 16 17 17 17 16 16 15 14 13 13 14 14 15 14 14 13 12 13 13 13 12 12 12 12 12 12 12 12 12 12 12 11 11 11
15 15 15 15 16 16 17 17 17 17 18 18 18 19 19 19 18 18 18 17 17 17 17 17 16 17 17 17 17 17 17 16 16 16 16 17 17 17 16 15 15 15 14 13 13 14 14 15 15 15 14 13 14 14 14 14 14 13 13 13 13 13 13 13 13 12 12 11 12
16 15 15 14 16 17 17 18 18 18 18 18 18 19 19 19 19 18 18 18 18 18 18 17 16 17 17 17 17 17 17 18 18 18 17 17 16 16 15 14 14 13 13 12 13 14 15 14 14 14 14 13 13 14 14 14 14 13 13 13 14 13 13 14 14 13 13 13 13
16 16 16 16 16 17 18 18 18 18 18 18 19 19 19 19 19 19 18 19 19 19 19 18 18 17 17 16 16 17 17 18 18 17 17 16 15 15 14 13 12 12 12 12 17 20 21 20 17 14 13 12 13 13 13 14 14 14 14 14 14 14 14 14 14 14 14 14 14
16 16 16 17 17 18 18 18 18 19 19 19 19 19 19 19 19 19 19 19 19 19 19 19 18 17 16 15 15 16 16 16 17 16 15 15 15 15 14 13 12 11 11 14 19 23 25 25 24 21 16 12 12 11 11 12 12 13 13 14 14 13 13 12 12 13 13 13 13
16 16 17 17 17 18 19 19 19 19 19 19 19 19 19 19 18 19 19 19 19 19 19 18 17 16 15 14 15 15 16 15 16 16 17 16 16 15 15 13 12 11 12 17 22 24 26 27 27 26 22 15 12 11 11 10 11 12 12 12 12 12 12 11 11 11 11 12 11
16 16 17 17 18 18 18 19 19 19 20 20 20 19 19 19 19 19 19 19 20 19 18 16 15 13 12 11 13 15 16 16 16 16 16 17 17 17 17 15 13 13 16 21 24 26 27 27 28 28 26 21 15 12 11 11 10 10 10 11 11 11 11 10 9 10 11 11 11
17 17 17 18 18 18 19 19 20 20 20 19 19 19 19 19 19 19 20 20 20 19 17 14 12 10 10 11 13 15 17 17 16 15 15 16 17 17 17 16 14 16 19 24 26 27 28 28 27 27 27 24 16 11 9 9 9 8 8 9 9 9 9 9 9 10 10 10 9
17 17 18 18 19 19 19 19 20 20 19 18 19 19 19 19 20 20 20 21 20 19 17 14 12 12 13 14 15 16 16 16 15 15 15 16 16 16 16 16 15 16 18 23 26 27 28 28 27 27 26 26 20 14 10 9 8 7 7 7 8 8 9 9 10 10 10 9 8
17 18 18 19 20 20 20 20 20 20 19 18 19 20 20 20 20 20 20 20 19 18 18 16 16 16 16 17 16 16 16 16 16 15 15 16 16 16 16 16 16 16 18 23 25 27 27 28 27 26 26 25 20 14 10 9 9 8 8 8 8 9 9 9 10 10 10 9 7
18 18 19 20 20 20 20 20 20 19 20 20 20 21 21 21 20 20 19 19 19 18 18 17 17 18 18 18 18 18 17 17 17 16 16 16 16 16 15 15 15 16 18 23 25 26 27 27 26 26 25 25 21 16 11 9 9 9 9 9 9 9 9 8 8 9 10 9 8
18 19 20 20 20 20 20 20 19 20 20 21 21 21 21 21 20 20 19 19 18 18 17 17 17 18 18 18 18 18 18 17 17 18 18 18 17 16 16 15 13 15 18 23 25 26 26 25 25 25 25 25 20 15 11 9 9 8 8 9 9 9 9 9 9 9 9 9 7
19 20 20 20 20 20 20 19 20 21 21 21 21 21 21 21 21 20 19 18 17 17 16 16 16 17 17 17 17 17 17 16 16 17 17 16 16 16 15 14 12 13 18 22 24 25 25 24 24 24 24 25 18 12 9 9 8 8 8 8 9 9 10 10 10 10 10 9 7
19 20 21 21 20 20 20 20 21 21 22 21 21 21 21 20 20 20 19 19 18 18 17 16 16 16 16 16 17 17 17 17 17 17 17 16 16 16 16 14 13 15 18 22 24 24 24 24 24 24 24 22 14 9 7 8 8 8 8 8 9 10 10 10 10 10 10 9 8
20 21 21 21 21 20 20 21 21 22 22 22 21 21 21 20 19 19 19 19 19 18 17 17 17 16 17 17 16 16 16 16 16 16 17 17 17 17 16 15 13 15 18 22 23 24 24 24 24 23 22 18 11 7 5 6 7 7 8 8 9 9 10 10 10 10 10 9 8
20 21 21 21 21 21 21 21 21 22 22 22 22 21 21 20 19 18 18 18 18 17 17 17 17 17 17 17 16 15 15 15 15 16 16 17 17 17 17 15 14 15 17 20 22 23 24 24 23 22 20 15 9 6 5 5 5 6 7 7 8 8 8 8 9 9 8 8 8
20 21 21 22 21 21 21 21 21 22 22 22 22 21 20 19 18 18 18 17 17 17 17 17 18 17 17 17 16 16 16 15 15 16 16 17 17 17 17 16 14 14 15 18 21 22 23 23 23 22 19 13 9 6 5 4 5 5 5 6 6 6 6 6 6 6 6 6 7
21 21 21 22 21 21 21 21 21 22 23 23 22 21 20 19 18 17 17 17 17 17 17 18 18 18 17 17 16 16 16 16 16 16 16 16 17 17 18 17 14 13 14 17 20 22 22 22 22 21 19 15 10 7 5 4 4 5 5 5 4 5 5 5 5 4 4 5 8
21 21 21 21 21 21 21 21 22 22 22 21 21 21 20 19 18 18 18 17 17 17 17 17 18 17 16 16 16 16 16 16 15 16 16 17 17 19 19 18 15 13 14 17 19 21 21 21 21 21 19 14 9 6 5 4 4 5 5 4 4 4 4 5 4 4 4 5 8
20 21 21 21 21 20 21 21 22 22 21 20 20 19 19 18 18 18 18 16 17 16 16 15 16 16 16 17 16 16 16 17 16 16 16 17 18 18 18 17 14 12 12 14 17 19 21 21 21 20 18 13 9 6 5 4 4 4 5 5 4 4 4 4 4 5 5 5 5
Wind_Direction
302 300 298 297 296 294 293 292 291 290 289 290 289 290 289 289 288 288 288 287 286 286 286 285 284 284 285 285 285 285 286 286 286 286 286 286 286 285 285 284 284 283 282 281 281 281 280 279 278 277 275 274 273 270 266 260 255 253 254 254 257 260 262 263 265 266 267 268 268
301 299 298 298 298 297 296 296 294 294 293 293 293 293 292 292 291 291 290 289 287 287 287 286 285 284 284 283 282 282 282 282 282 282 282 282 282 281 281 280 279 278 278 278 278 278 277 277 276 275 274 272 272 271 268 262 257 254 254 253 255 258 260 261 263 264 265 267 267
302 302 301 301 301 301 300 299 298 298 298 297 296 296 296 295 293 292 291 290 288 288 287 287 286 284 283 282 281 280 279 279 279 279 278 278 278 277 277 276 276 275 275 275 275 275 275 275 275 274 273 271 271 270 269 267 262 258 256 254 255 257 258 260 262 264 266 267 265
304 304 304 303 302 302 302 301 301 301 301 300 299 298 296 295 294 292 291 291 290 289 287 287 287 286 285 285 284 283 282 281 281 280 279 279 278 278 278 278 278 277 277 276 275 274 274 274 274 273 272 272 271 271 270 269 266 263 260 256 256 256 258 259 263 266 268 269 268
305 305 305 304 304 303 302 301 302 301 301 301 300 298 296 295 294 293 292 292 292 291 291 290 290 290 290 289 288 287 286 286 285 284 284 283 282 282 282 281 281 281 281 280 278 277 275 275 274 273 273 272 271 271 270 270 268 265 262 259 258 257 258 260 261 264 267 270 271
305 305 304 303 303 302 301 300 300 300 300 299 298 297 296 295 294 294 294 294 293 293 293 293 292 292 292 292 291 290 290 289 288 287 286 285 284 283 282 281 281 282 282 282 281 280 279 278 276 274 272 272 271 270 270 270 269 266 263 261 259 259 260 260 261 262 264 266 269
304 304 304 303 302 301 299 299 299 298 298 297 296 295 294 294 294 294 293 294 294 294 294 293 293 293 293 294 293 292 292 291 289 287 286 284 283 282 280 280 280 280 281 282 283 282 281 280 278 275 273 272 270 269 268 269 269 267 265 262 260 260 260 260 261 262 262 264 267
303 302 301 301 300 299 298 298 297 297 296 295 294 294 293 293 293 293 293 293 293 293 293 292 292 292 293 294 294 294 293 292 291 289 287 285 284 283 281 280 279 278 279 281 282 282 283 282 279 278 276 274 272 270 269 269 269 269 268 265 263 261 260 261 262 262 263 265 269
301 300 299 298 298 297 297 296 296 295 295 294 293 292 292 292 292 292 292 292 291 291 291 291 291 292 293 293 293 294 294 294 293 292 291 290 288 287 285 282 280 278 277 277 278 280 281 281 279 278 277 277 276 274 272 270 269 269 268 266 264 262 261 262 262 263 264 266 270
300 299 299 298 297 296 296 296 295 295 294 293 292 291 290 291 291 290 290 289 290 290 290 290 291 291 292 292 292 293 294 294 294 294 294 294 293 292 290 288 285 282 278 275 274 275 277 278 277 276 277 278 279 278 276 273 270 267 266 264 262 260 260 260 260 261 262 264 268
299 299 299 298 297 297 297 297 296 295 293 292 291 290 290 289 289 288 287 288 288 288 288 289 290 290 291 291 292 292 293 293 294 294 295 295 295 294 293 291 289 286 282 277 273 270 268 267 268 270 271 273 276 277 277 275 271 268 265 262 260 258 258 257 257 258 259 261 264
300 299 299 298 298 297 297 296 295 294 292 291 291 290 290 289 288 287 287 288 288 288 288 289 290 290 291 291 291 292 292 292 292 292 293 293 293 293 292 291 290 287 285 280 274 267 260 255 256 259 262 266 269 272 274 275 274 271 267 263 259 256 255 256 256 257 258 258 260
300 300 299 298 298 297 296 295 294 293 292 291 291 291 290 289 289 289 289 290 290 290 291 292 291 291 291 291 291 291 290 290 290 290 290 291 291 291 291 290 289 287 285 282 276 269 261 255 252 253 256 260 262 265 268 271 272 272 269 265 260 257 256 257 258 260 260 259 258
300 300 299 298 298 298 296 295 294 293 292 291 291 291 291 291 292 293 293 293 294 294 294 295 294 293 292 291 291 290 290 289 289 289 288 288 288 288 288 287 287 285 284 282 277 273 267 262 256 253 253 255 258 261 263 264 266 267 267 265 262 259 259 261 263 264 263 261 260
300 299 299 298 298 297 297 296 294 293 293 292 292 293 294 295 296 298 298 298 297 297 297 297 295 294 292 291 291 291 290 289 288 287 286 285 284 284 283 283 283 282 282 281 280 278 275 271 265 258 253 253 258 261 263 263 262 262 261 261 260 259 260 261 264 265 265 263 263
300 300 299 299 298 297 296 295 294 294 294 294 295 297 298 299 300 301 301 300 300 299 298 297 297 296 294 293 292 291 291 289 287 286 284 283 282 281 280 279 279 279 280 281 282 282 279 275 271 266 260 255 258 263 267 269 267 265 262 259 257 255 255 255 257 259 261 264 266
300 300 299 299 298 297 296 296 295 295 296 297 299 300 301 302 302 302 301 301 301 300 300 299 299 297 296 294 293 292 291 289 287 285 283 282 281 280 279 278 277 277 278 279 280 280 278 275 272 269 264 258 257 260 265 269 271 270 268 264 258 253 249 248 248 250 253 259 265
301 300 299 299 298 297 297 297 297 298 299 301 302 303 303 303 302 301 301 300 300 300 300 300 299 298 297 296 294 292 290 289 287 285 284 282 281 280 279 278 277 276 276 275 276 275 274 272 269 267 263 259 255 255 256 260 264 266 267 267 263 257 250 245 243 243 245 249 255
301 301 300 299 299 299 299 300 301 302 303 304 305 305 304 303 302 301 300 299 299 300 300 300 299 298 296 294 293 291 289 287 286 284 283 282 281 280 278 277 276 274 273 272 271 270 269 268 266 264 261 258 255 253 252 252 253 256 259 262 263 260 256 251 245 242 241 241 243
302 302 301 301 301 302 303 304 305 306 306 307 306 305 304 303 301 300 299 299 299 299 299 298 297 295 293 292 290 289 287 286 285 283 282 282 281 279 278 276 274 272 271 269 267 266 265 264 263 261 260 258 256 255 253 252 251 251 252 254 257 258 258 256 251 246 241 238 238
303 303 304 304 305 306 307 308 308 308 308 307 306 304 303 302 301 300 299 299 299 298 297 295 293 292 290 289 288 287 286 284 283 282 281 280 280 279 278 277 275 274 271 268 266 265 263 261 259 257 257 257 256 255 254 253 252 251 251 251 252 253 255 257 255 251 246 242 240
305 306 307 308 309 310 310 310 310 309 307 306 305 304 303 302 302 301 300 299 299 297 295 292 290 289 288 287 287 286 285 284 283 281 280 279 278 278 278 277 277 275 273 270 267 265 263 260 257 254 253 253 253 252 252 251 251 251 251 250 250 249 250 252 254 254 252 250 248
309 310 311 311 312 312 312 311 309 308 307 306 305 305 304 303 303 301 301 299 297 295 293 290 289 288 287 287 287 287 287 286 284 282 280 279 278 277 276 276 275 273 271 269 267 265 264 262 258 254 251 250 250 250 249 249 250 250 250 249 248 246 245 245 247 249 252 253 252
313 314 314 313 313 313 311 310 309 308 307 307 306 306 305 304 303 302 300 298 296 294 292 291 290 289 289 289 290 290 290 290 288 285 283 280 279 277 276 274 272 269 268 267 266 264 263 261 258 254 250 248 247 247 247 247 247 248 248 247 246 244 242 241 240 241 242 244 244
315 315 314 313 313 311 310 309 309 309 308 308 307 306 304 303 302 301 299 298 296 295 294 293 292 292 292 292 292 293 293 293 290 288 285 283 280 278 276 273 270 268 267 267 267 266 264 261 258 254 250 247 245 244 244 244 245 245 245 245 245 243 241 239 237 236 236 236 236
315 314 313 312 311 310 310 309 309 309 308 307 306 304 303 302 301 301 300 299 298 298 297 296 296 295 296 295 295 295 294 292 290 288 286 283 280 278 275 272 269 267 266 267 268 268 266 263 259 255 251 247 245 243 242 242 241 241 242 244 243 243 242 240 238 237 236 236 236
314 313 312 311 310 310 310 310 309 308 307 305 304 303 302 302 302 302 302 302 301 301 300 299 299 299 298 296 295 293 291 289 287 285 284 281 279 277 275 272 268 266 266 268 270 270 268 265 262 258 254 250 246 244 243 242 239 238 239 241 242 243 244 244 246 247 247 246 243
313 312 311 311 310 310 310 310 308 307 305 304 303 303 303 303 303 304 304 304 304 303 302 300 300 299 297 294 292 290 288 286 284 282 281 279 278 277 275 273 269 267 267 269 271 272 271 268 265 263 260 256 252 248 246 246 242 238 236 237 240 243 244 246 251 255 256 254 250
312 311 311 311 311 311 310 309 307 305 304 303 303 304 304 305 305 306 306 305 304 303 301 299 298 295 291 288 287 287 286 285 283 281 279 278 277 276 275 272 270 269 269 271 273 274 275 273 270 267 264 261 258 253 248 247 245 242 239 238 238 237 237 237 241 246 249 251 249
312 312 312 312 311 310 309 307 305 305 304 304 305 306 306 306 307 306 305 304 302 301 298 296 294 290 286 284 285 286 285 283 281 279 277 276 275 274 273 272 270 269 269 271 274 276 277 277 274 270 267 264 262 260 256 251 247 243 240 238 234 231 229 228 230 233 236 239 240
313 313 313 312 311 310 308 306 306 306 306 306 306 307 307 307 306 305 304 302 299 297 295 294 291 287 285 284 284 283 282 281 280 278 275 274 273 273 272 272 271 270 269 271 274 276 277 277 275 271 268 265 263 260 254 247 243 240 236 233 230 227 226 227 228 229 230 230 234
314 314 314 312 311 309 308 307 307 307 307 307 307 307 307 306 304 302 300 298 297 296 295 293 291 288 286 285 284 282 281 280 279 277 276 274 273 272 271 271 269 268 269 270 273 275 276 276 275 271 268 265 263 260 254 247 243 240 235 231 229 227 227 229 232 234 233 231 231
316 315 314 312 310 309 308 308 308 308 308 308 308 307 306 304 302 300 299 297 296 295 294 292 290 288 287 285 284 282 281 279 279 278 277 276 274 273 272 271 268 267 268 270 272 273 274 275 274 272 269 266 265 263 260 255 248 242 235 230 227 228 231 235 238 239 237 233 224
317 315 314 312 311 310 309 309 309 309 308 308 306 305 304 302 301 300 299 298 296 294 291 289 287 286 284 283 282 281 280 279 280 280 280 278 275 272 271 269 266 266 267 269 271 272 273 273 273 271 270 268 268 266 263 258 252 244 235 228 225 226 230 234 239 240 237 228 218
318 316 315 314 312 311 310 309 309 309 308 307 305 304 303 302 301 300 299 297 295 293 290 287 285 284 283 282 280 279 278 278 280 281 281 280 277 273 270 267 265 264 265 267 269 271 271 271 271 270 269 269 269 266 260 255 251 244 236 228 227 227 229 232 237 238 234 224 213
319 317 316 314 312 311 309 309 309 308 307 306 305 305 304 303 301 299 298 297 295 292 289 287 286 285 284 282 280 279 277 277 279 281 282 283 280 277 273 268 265 263 263 266 268 269 270 270 270 270 270 270 268 262 252 250 248 242 238 235 235 234 233 232 235 234 230 219 209
319 318 316 314 311 309 308 307 308 308 307 306 306 305 305 303 301 300 298 297 294 292 290 288 287 286 284 283 282 281 280 278 279 281 282 283 282 280 276 271 266 262 262 264 267 268 270 271 271 270 270 269 264 254 245 244 244 242 240 241 243 241 239 236 235 232 225 213 205
319 317 315 312 310 308 307 307 307 307 307 307 307 306 304 303 302 300 299 298 295 293 292 290 289 286 285 284 284 284 284 282 281 281 282 283 282 280 277 272 266 262 261 263 266 268 269 271 271 270 268 265 260 251 241 236 239 240 240 241 243 241 239 238 236 233 226 216 218
318 316 313 310 308 306 306 306 307 308 308 308 307 306 305 304 302 300 299 298 295 293 292 290 288 286 285 287 288 289 288 286 284 283 283 283 281 279 277 273 267 261 259 260 263 266 268 269 269 268 266 264 260 253 240 232 234 237 237 235 234 233 233 235 238 240 239 238 243
316 313 310 308 307 306 307 307 308 308 308 307 306 306 305 304 302 300 299 297 295 292 290 288 287 286 287 290 292 292 292 290 287 285 284 283 281 279 277 274 269 263 259 260 262 265 267 268 269 268 266 263 260 253 244 233 232 233 233 230 224 222 223 226 230 233 237 242 248
314 311 309 307 307 307 308 308 308 307 307 306 306 305 304 304 302 300 299 296 294 291 289 288 288 289 290 293 294 293 292 291 288 286 285 284 282 280 278 275 271 266 261 260 262 264 266 268 269 268 266 262 258 251 244 236 234 234 233 230 224 219 217 218 220 221 222 224 231